Hickory Regional Airport
KHKY : now visible

Airfield :











YOU CAN JOIN US ON...

 
LOGIN :

Register | Disclaimer

   EN    FR    IT 

 









Legend :    VFR   Marginal VFR   IFR   Intensive IFR   Very Intensive IFR
Visi :
Ceiling :
>= 8 km
>= 3000ft
5 to 8 km
1000 to 3000 ft
1500m to 5 km
500 to 1000 ft
800 to 1500m
200 to 500 ft
< 800m
< 200 ft
Symbols :   Thunderstorms  Fog  Heavy snow  Heavy precipitations  Wind > 20 kt






- Airport Elevation : 1190 ft
- IATA code : HKY


KHKY - Hickory Regional

CURRENT METAR :
  • 272153Z 20003KT 10SM CLR 27/12 A3005 RMK AO2 SLP157 T02670122

EXPIRED METARs :
  • 272053Z 23004KT 10SM CLR 27/11 A3005 RMK AO2 SLP158 T02720111 56020
  • 271953Z VRB04KT 10SM CLR 28/10 A3007 RMK AO2 SLP162 T02780100

TAF KHKY
Valid from the 27 at 18:00 until the 28 at 18:00 UTC


271734Z 2718/2818 23005KT P6SM SKC
FM280200 VRB03KT P6SM FEW200
KZTL FIR / North America



MET'MAP, your aeronautical weather chart ! - Copyright ORBIFLY December 2007 - Disclaimer

ORBIFLY MET'MAP TEAM :

Programming & Development : Alexandra Zaïnal
Concept & original design : Baudouin d'Aumeries
Assistance for programming : Marc-Olivier Méhu
Technical & hardware support : Manuel Goepfert

Contact : metmap@orbifly.com




SOURCES & CREDITS :

   NOAA       Earth
Advisory